Location: Muck Cross
(36.7179°N, 78.3678°W)
Time: 15:00:24
(UTC+00:00)

Vanguard 2 Rocket - Visible Passes

Search period start: 30 March 2023 00:00
Search period end: 09 April 2023 00:00
Orbit: 555 x 3315 km, 32.9° (Epoch: 30 March)

Date Brightness Start Highest point End Pass type
(mag) Time Alt. Az. Time Alt. Az. Time Alt. Az.
30 Mar 7.6 00:47:29 10° WSW 00:53:34 68° S 01:00:18 23° E visible
30 Mar 8.4 02:59:31 10° W 03:05:58 54° SW 03:05:58 54° SW visible
30 Mar 7.3 23:47:30 10° WSW 23:52:38 59° SSE 00:01:23 10° E visible
31 Mar 7.9 01:59:11 10° W 02:06:18 65° S 02:08:20 55° SE visible
31 Mar 9.7 04:11:52 10° W 04:14:00 19° W 04:14:00 19° W visible
01 Apr 7.6 00:59:02 10° W 01:05:02 67° S 01:10:41 27° ESE visible
01 Apr 8.7 03:11:11 10° W 03:16:21 40° WSW 03:16:21 40° WSW visible
01 Apr 7.2 23:58:58 10° WSW 00:04:04 64° S 00:12:44 10° E visible
02 Apr 8.0 02:10:48 10° W 02:17:44 56° SSW 02:18:43 54° S visible
02 Apr 10.0 04:23:54 10° W 04:24:23 12° W 04:24:23 12° W visible
03 Apr 7.6 01:10:35 10° W 01:16:28 60° S 01:21:05 31° ESE visible
03 Apr 9.1 03:22:59 10° W 03:26:45 28° WSW 03:26:45 28° WSW visible
04 Apr 7.2 00:10:28 10° W 00:15:29 62° S 00:23:27 12° ESE visible
04 Apr 8.3 02:22:27 10° W 02:29:07 44° SSW 02:29:07 44° SSW visible
05 Apr 7.8 01:22:08 10° W 01:27:52 49° SSW 01:31:30 33° SE visible
05 Apr 9.5 03:35:07 10° WSW 03:37:11 18° WSW 03:37:11 18° WSW visible
06 Apr 7.4 00:21:57 10° W 00:26:53 54° S 00:33:54 14° ESE visible
06 Apr 8.7 02:34:17 10° W 02:39:35 31° SSW 02:39:35 31° SSW visible
07 Apr 8.2 01:33:48 10° W 01:39:15 37° SSW 01:41:59 30° SSE visible
08 Apr 7.6 00:33:29 10° W 00:38:15 42° SSW 00:44:24 15° SE visible
08 Apr 9.2 02:46:34 10° WSW 02:50:05 20° SW 02:50:05 20° SW visible
